This demonstration page uses our WeatherBlox Daily Observations layout. Learn more.

Left ArrowRight Arrow

Hourly Observations for May 16, 2022

Temp ( °F °C ) Dew Point ( °F °C ) Humidity (%) Winds ( mph kmh ) Pressure ( in mb ) Visibility ( mi km ) Precip ( " mm )
12:53 am 00:53 Cloudy with Rain 66 18.9 56 13.3 70 70 NNW 17 28 29.82 1010 9 14 0.02 0.51
1:53 am 01:53 Mostly Cloudy with Nearby Thunderstorms 62 16.7 57 13.9 84 84 WNW 13 20 29.86 1011 10 16 0.01 0.25
2:13 am 02:13 Cloudy with Light Rain 61 16.1 58 14.4 90 90 N 7 11 29.87 1012 6 10 0.04 1.02
2:21 am 02:21 Cloudy with Nearby Thunderstorms 60 15.6 58 14.4 93 93 WNW 9 15 29.90 1012 8 13 0.05 1.27
2:36 am 02:36 Cloudy with Heavy Rain 60 15.6 58 14.4 93 93 NNW 8 13 29.87 1011 3 5 0.15 3.81
2:53 am 02:53 Cloudy with Rain 59 15 57 13.9 93 93 NE 5 7 29.85 1011 5 8 0.23 5.84
3:53 am 03:53 Cloudy with Light Rain 59 15 57 13.9 93 93 NNE 6 9 29.79 1009 10 16 0.05 1.27
4:53 am 04:53 Partly Cloudy 58 14.4 56 13.3 93 93 WNW 3 6 29.78 1009 10 16 0.00 0.00
5:53 am 05:53 Cloudy 59 15 57 13.9 93 93 WNW 12 19 29.81 1009 10 16 0.00 0.00
6:04 am 06:04 Cloudy 58 14.4 56 13.3 93 93 WNW 10 17 29.83 1010 10 16 0.00 0.00
6:22 am 06:22 Mostly Cloudy 57 13.9 55 12.8 93 93 NW 7 11 29.83 1010 10 16 0.00 0.00
6:53 am 06:53 Mostly Cloudy 57 13.9 55 12.8 93 93 WNW 5 7 29.83 1010 10 16 0.00 0.00
7:53 am 07:53 Partly Cloudy 58 14.4 56 13.3 93 93 WNW 6 9 29.86 1011 10 16 0.00 0.00
8:22 am 08:22 Cloudy 59 15 56 13.3 90 90 NW 7 11 29.88 1012 10 16 0.00 0.00
8:53 am 08:53 Mostly Cloudy 60 15.6 55 12.8 84 84 NW 12 19 29.88 1012 10 16 0.00 0.00
9:19 am 09:19 Partly Cloudy 61 16.1 55 12.8 81 81 NW 12 19 29.89 1012 10 16 0.00 0.00
9:53 am 09:53 Mostly Sunny 65 18.3 56 13.3 73 73 NW 8 13 29.90 1012 10 16 0.00 0.00
10:53 am 10:53 Sunny 67 19.4 54 12.2 63 63 WNW 9 15 29.90 1013 10 16 0.00 0.00
11:53 am 11:53 Mostly Sunny 69 20.6 54 12.2 59 59 W 8 13 29.91 1013 10 16 0.00 0.00
12:53 pm 12:53 Sunny 72 22.2 52 11.1 50 50 WNW 10 17 29.90 1013 10 16 0.00 0.00
1:53 pm 13:53 Sunny 74 23.3 52 11.1 46 46 NW 12 19 29.89 1012 10 16 0.00 0.00
2:53 pm 14:53 Mostly Sunny 75 23.9 46 7.8 36 36 WNW 14 22 29.88 1012 10 16 0.00 0.00
3:53 pm 15:53 Partly Cloudy 76 24.4 48 8.9 37 37 W 8 13 29.86 1011 10 16 0.00 0.00
4:53 pm 16:53 Partly Cloudy 76 24.4 46 7.8 35 35 WNW 9 15 29.86 1011 10 16 0.00 0.00
5:53 pm 17:53 Mostly Cloudy 76 24.4 43 6.1 31 31 W 12 19 29.86 1011 10 16 0.00 0.00
6:53 pm 18:53 Sunny 75 23.9 45 7.2 34 34 WNW 8 13 29.86 1011 10 16 0.00 0.00
7:53 pm 19:53 Sunny 73 22.8 46 7.8 38 38 W 6 9 29.86 1011 10 16 0.00 0.00
8:53 pm 20:53 Clear 64 17.8 53 11.7 68 68 Calm 29.88 1012 10 16 0.00 0.00
9:53 pm 21:53 Clear 59 15 53 11.7 81 81 Calm 29.90 1013 10 16 0.00 0.00
10:53 pm 22:53 Partly Cloudy 57 13.9 52 11.1 83 83 Calm 29.92 1013 10 16 0.00 0.00
11:53 pm 23:53 Clear 57 13.9 53 11.7 87 87 Calm 29.92 1013 10 16 0.00 0.00

Powered by AerisWeather